EHI
22 20 17 14 12 13 13 9 7 6 5 4 5 5 4 3 4 4 3 1 0 0 1 0 0 0 0 0 0 0 0 0 0 0 0 0 0 0 0 0 0 0 0
20 19 17 15 14 14 12 9 8 7 5 4 5 6 4 3 4 4 3 1 0 0 1 1 1 0 0 0 0 0 0 0 0 0 0 0 0 0 0 0 0 0 0
15 15 15 15 14 13 11 10 9 7 5 5 6 7 5 4 4 4 3 1 1 0 1 2 1 0 0 0 0 0 0 0 0 0 0 0 0 0 0 0 0 0 0
9 10 11 12 12 11 10 9 8 6 5 6 6 7 6 5 5 4 3 3 2 1 1 2 1 0 0 0 0 0 0 0 0 0 0 0 0 0 0 0 0 0 0
4 5 6 7 9 9 9 7 6 4 5 6 7 7 7 7 7 5 4 4 5 4 3 2 0 0 0 0 0 0 0 0 0 0 0 0 0 0 0 0 0 0 0
2 3 3 4 5 8 8 6 4 3 4 6 7 8 8 8 7 5 4 5 7 6 5 3 1 1 0 0 0 0 0 0 0 0 0 0 0 0 0 0 0 0 0
3 3 2 2 3 5 7 6 3 3 5 7 7 7 7 6 4 2 2 5 7 7 5 3 2 2 1 0 0 0 0 0 0 0 0 0 0 0 0 0 0 0 0
4 3 2 2 3 4 5 5 3 4 5 6 7 7 6 5 2 0 1 3 6 5 2 1 1 2 1 0 0 0 0 0 0 0 0 0 0 0 0 0 0 0 0
4 4 3 3 5 5 4 4 3 3 4 4 5 6 6 4 1 0 0 2 4 3 1 0 0 1 1 0 0 0 0 0 0 0 0 0 0 0 0 0 0 0 0
4 5 5 5 6 6 5 4 4 3 3 3 4 5 6 4 1 0 1 2 3 2 2 1 0 0 0 0 0 0 0 0 0 0 0 0 0 0 0 0 0 0 0
5 6 5 5 5 6 6 6 5 5 5 4 4 5 5 4 2 1 1 2 3 3 2 1 0 0 0 0 0 0 0 0 0 0 0 0 0 0 0 0 0 0 0
5 5 4 4 4 4 4 5 7 8 8 7 6 6 5 4 2 1 1 2 3 3 3 2 0 0 0 0 0 0 0 0 0 0 0 0 0 1 0 0 0 0 0
2 1 1 2 2 2 2 4 6 8 9 9 8 6 4 2 1 0 0 1 1 3 3 1 0 0 0 0 0 0 0 0 0 0 0 0 0 0 0 0 0 0 0
0 0 0 1 1 0 1 2 4 6 8 9 8 6 4 1 0 0 0 0 1 2 2 1 0 0 0 0 0 0 0 0 0 0 0 0 0 0 0 0 0 0 0
0 0 0 0 0 0 0 0 1 3 5 6 5 5 3 1 0 0 0 0 1 1 1 0 0 0 0 0 0 0 0 0 0 0 0 1 2 1 0 0 0 0 0
0 0 0 0 0 0 0 0 0 0 1 2 2 2 2 1 0 0 0 0 0 0 0 0 0 0 0 0 0 0 0 0 0 0 1 2 2 1 0 0 0 0 0
1 0 0 0 0 0 0 0 0 0 0 0 0 1 1 0 0 0 0 0 0 0 0 0 0 0 0 0 0 0 0 0 0 0 1 1 1 1 0 0 0 0 0
2 1 0 0 0 0 0 0 0 0 0 0 0 0 0 0 0 0 0 0 0 0 0 0 0 0 0 0 0 0 0 0 0 0 0 0 0 0 0 0 0 0 0
3 2 1 1 0 0 0 0 0 0 0 0 0 0 0 0 0 0 0 0 0 0 0 0 0 0 0 0 0 0 0 0 0 0 0 0 0 0 0 0 0 0 0
3 3 2 1 1 0 0 0 0 0 0 0 0 0 0 0 0 0 0 0 0 0 0 0 0 0 0 0 0 0 0 0 0 0 0 0 0 0 1 1 1 0 0
2 2 1 1 1 0 0 0 0 0 0 0 0 0 0 0 0 0 0 0 0 0 0 0 0 0 0 0 0 0 0 0 1 1 1 1 0 1 2 2 1 0 0
1 1 0 0 0 0 0 0 0 0 0 0 0 0 0 0 0 0 0 0 0 0 0 0 0 0 0 0 0 0 0 1 2 2 2 2 1 1 3 3 2 0 0
0 0 0 0 0 0 0 0 0 0 0 0 0 0 0 0 0 0 0 0 0 0 0 0 0 0 0 0 0 0 0 1 2 2 3 3 3 3 3 3 2 1 0
0 0 0 0 0 0 0 0 0 0 0 0 0 0 0 0 0 0 0 0 0 0 0 0 0 0 0 0 0 0 0 0 1 1 1 2 3 3 3 3 3 2 1
0 0 0 0 0 0 0 0 0 0 0 0 0 0 0 0 0 0 0 0 0 0 0 0 0 0 0 0 0 0 0 0 0 0 0 1 2 3 3 3 3 3 2
0 0 0 0 0 0 0 0 0 0 0 0 0 0 0 0 0 0 0 0 0 0 0 0 0 0 0 0 0 0 0 0 0 0 0 0 1 3 3 3 3 3 3
Wind_Speed
3 3 4 3 4 4 3 3 3 2 2 3 3 3 2 2 2 2 3 3 3 2 1 2 2 1 0 0 1 1 1 2 1 2 1 1 1 1 2 2 2 2 2
3 3 3 3 3 4 4 4 4 4 3 3 3 3 3 2 2 3 3 3 3 3 3 2 2 2 1 1 0 1 1 1 2 1 2 1 2 2 2 2 2 2 2
3 3 3 3 3 4 5 4 4 3 3 2 2 3 3 3 3 3 4 3 4 4 3 3 3 2 2 2 1 1 1 1 1 1 2 1 1 2 2 2 2 2 3
2 3 2 3 4 4 4 4 3 3 2 2 2 2 3 3 3 3 3 3 3 3 4 4 4 4 4 3 2 2 1 0 0 1 1 1 1 2 1 1 2 2 3
2 2 3 3 2 2 3 3 3 3 3 2 2 2 2 2 3 3 4 4 3 3 3 3 3 4 5 4 2 2 2 1 1 1 1 1 2 1 1 1 2 2 3
2 2 2 2 1 2 2 2 2 3 2 3 3 3 3 3 4 5 4 4 3 3 3 3 2 3 4 4 3 3 3 3 3 2 2 2 3 3 2 2 1 1 2
3 3 3 3 3 3 2 2 2 3 3 3 3 3 3 4 4 5 6 4 4 4 4 3 2 2 2 1 2 2 3 5 5 4 4 4 4 4 2 2 2 2 3
3 3 3 3 3 3 2 3 3 3 3 3 3 3 3 5 5 6 6 4 3 4 4 4 4 3 3 2 2 1 2 3 4 4 5 5 5 4 3 3 3 2 2
3 3 3 3 3 3 3 3 3 2 3 3 3 4 4 5 5 5 4 3 3 4 3 3 3 3 3 2 2 1 2 3 4 3 4 4 5 5 3 2 1 0 2
3 3 3 3 3 4 4 4 3 3 3 3 3 3 4 3 4 4 4 2 3 3 2 2 3 3 3 2 2 2 3 3 2 3 2 3 3 3 3 4 4 2 1
3 3 2 3 3 3 3 3 2 2 2 2 3 3 3 4 4 5 6 3 4 3 2 2 2 3 3 3 3 3 5 3 2 2 2 2 2 2 2 2 3 4 3
2 2 2 2 3 2 2 3 2 2 2 2 2 2 2 3 3 5 7 6 4 3 3 2 2 4 3 3 3 4 4 2 1 1 1 2 2 2 3 2 3 3 3
2 2 2 2 2 2 2 3 2 2 2 3 3 2 2 2 2 4 5 5 5 3 3 3 3 4 3 3 4 3 2 1 1 1 2 3 3 3 2 1 1 1 1
2 1 1 1 1 1 2 2 2 2 3 3 3 2 2 2 2 1 2 2 3 2 1 1 2 2 1 2 2 2 1 2 2 2 2 2 1 1 1 1 1 1 0
2 2 1 1 1 1 2 2 3 3 4 4 4 3 3 3 4 5 4 3 3 3 2 1 1 0 0 1 1 1 1 0 1 1 1 1 1 1 1 1 1 1 1
2 2 2 1 1 1 1 2 3 3 3 4 5 4 3 5 5 5 5 4 4 5 4 2 2 2 2 2 1 1 1 1 1 1 1 1 1 2 2 1 0 1 1
2 2 2 2 2 1 1 2 1 2 2 1 2 3 4 5 5 4 4 4 4 6 3 2 2 2 2 2 2 2 2 2 1 1 1 2 2 2 1 1 1 1 1
2 2 2 2 2 2 2 2 2 1 1 1 1 1 2 4 4 4 4 4 3 2 2 2 2 2 2 2 2 2 1 1 1 1 2 1 1 1 1 1 1 2 1
2 2 2 2 2 2 2 1 1 2 1 1 0 1 1 1 2 3 4 3 3 2 2 2 2 2 2 2 2 2 2 2 2 2 2 2 1 1 2 2 1 2 1
1 2 2 1 1 1 1 1 1 1 1 1 2 1 1 2 2 2 2 2 2 2 2 2 2 2 2 2 2 2 2 2 2 1 2 2 2 1 2 2 2 1 2
1 1 1 1 1 1 1 1 1 2 2 1 2 2 3 2 2 2 2 2 2 3 2 2 2 2 2 2 2 2 3 2 2 2 2 2 1 1 2 2 2 2 1
0 0 0 0 0 0 0 1 1 1 1 1 1 1 2 1 1 1 1 2 2 2 2 2 2 2 2 2 3 2 2 2 2 2 2 2 2 2 2 1 1 1 1
1 1 0 0 0 0 0 0 0 1 1 1 1 0 1 1 1 1 1 1 1 1 1 2 2 1 1 1 2 2 3 3 3 3 2 2 2 2 2 2 2 2 2
1 0 0 0 0 0 0 1 1 1 1 1 1 1 1 1 1 1 1 1 0 0 1 1 1 2 2 1 1 1 1 2 2 2 3 3 3 2 2 2 2 3 3
1 0 0 0 0 0 0 0 0 1 1 1 1 1 0 1 1 1 1 0 0 0 0 0 0 1 1 1 1 1 1 1 1 1 2 2 2 2 2 2 2 2 2
1 1 1 0 0 0 1 0 0 1 1 1 1 1 1 1 0 0 0 0 1 1 1 0 0 0 1 1 1 1 0 1 1 1 1 2 2 2 2 2 3 2 2
Wind_Direction
167 170 169 184 187 183 185 191 190 190 185 187 199 203 213 224 213 190 199 193 193 207 195 178 211 246 260 264 196 164 159 145 180 278 278 300 322 314 323 314 298 287 299
172 163 176 192 192 188 196 196 191 187 189 191 196 197 207 213 210 200 205 200 196 202 207 196 214 211 216 243 214 180 197 179 166 230 288 299 283 279 289 295 298 295 285
164 160 172 187 193 200 204 196 188 188 193 194 190 198 209 213 217 213 205 209 210 212 208 205 215 192 209 224 202 193 214 205 171 176 257 276 285 303 324 313 314 315 301
170 167 181 206 208 204 198 187 181 183 183 192 201 211 214 211 216 218 210 211 216 220 216 213 214 200 205 211 208 209 201 185 190 186 250 280 287 303 345 321 330 334 317
173 186 212 228 215 193 192 186 182 185 193 192 195 224 238 225 225 216 211 211 214 225 232 226 222 208 205 205 202 201 184 194 216 222 243 277 286 307 288 271 293 313 310
179 199 207 212 202 198 203 193 191 201 199 191 204 215 239 252 238 222 212 212 209 210 222 232 231 218 220 217 217 209 198 198 209 213 226 235 248 249 247 245 257 324 305
200 213 215 212 210 213 214 196 203 211 210 208 213 215 238 254 236 225 225 214 214 217 216 219 236 231 204 211 230 247 254 241 219 203 214 230 230 230 221 247 253 249 249
206 217 223 220 223 223 213 216 220 215 210 215 222 222 232 253 242 232 227 217 217 222 215 210 212 232 232 206 211 252 273 270 246 219 217 231 232 228 212 212 222 251 278
226 230 229 217 218 227 228 228 224 217 226 228 224 225 233 254 245 236 226 220 220 227 224 214 203 211 234 213 184 233 284 295 289 260 246 246 245 244 211 157 182 173 293
224 224 222 223 223 227 227 229 228 217 229 237 239 233 228 240 239 220 208 206 211 221 227 217 200 212 228 219 194 206 252 273 297 315 311 305 281 266 236 193 190 190 220
225 222 224 224 222 227 230 229 224 216 219 234 243 244 236 234 224 219 208 198 205 201 204 219 229 225 232 235 216 214 230 243 256 261 280 290 295 283 265 235 206 190 198
216 211 224 226 230 232 237 241 222 204 210 228 233 254 252 239 227 224 213 210 193 188 210 217 224 224 233 239 234 243 249 256 240 246 260 265 266 269 265 258 237 223 217
211 216 224 227 231 218 221 237 235 212 212 224 213 226 251 254 244 225 207 206 199 193 211 216 227 242 248 249 252 258 245 217 207 223 240 248 246 248 256 279 294 268 273
214 242 238 215 268 248 233 231 220 218 220 226 216 216 232 247 241 221 194 188 187 192 199 199 219 230 238 256 272 256 233 214 203 219 238 252 268 283 267 249 256 269 321
199 213 211 203 225 239 241 242 226 225 214 209 212 205 201 219 231 201 179 184 184 183 158 130 110 90 335 309 297 286 276 274 251 260 245 270 284 292 275 261 240 254 214
221 220 212 214 230 229 231 294 302 257 237 215 210 206 215 212 210 196 188 192 178 164 150 157 170 186 207 228 235 258 257 241 247 244 244 244 252 260 279 292 263 228 245
227 239 226 218 221 223 218 212 271 325 350 308 220 213 205 198 197 192 190 182 162 152 154 180 194 201 210 218 218 222 239 250 244 231 232 240 249 257 258 264 262 267 268
232 236 232 221 222 226 226 219 206 211 265 311 319 269 214 193 186 182 158 127 119 138 171 186 201 207 209 214 218 223 237 257 252 242 241 245 243 238 243 248 244 243 260
228 239 233 234 237 231 227 217 201 203 202 219 314 347 279 140 125 138 142 137 158 175 187 195 211 210 210 214 215 216 219 228 239 236 238 240 243 233 239 246 254 267 263
258 264 243 225 242 235 225 192 180 183 195 197 201 205 173 117 120 142 157 159 170 190 199 209 219 214 204 210 215 211 217 229 240 237 239 240 239 229 233 241 244 250 250
278 278 264 199 210 219 209 205 201 192 200 204 219 204 165 162 175 176 180 182 190 201 207 212 218 219 213 209 209 208 206 218 223 221 223 232 232 237 246 241 240 240 244
301 315 1 181 197 212 203 210 201 184 181 177 218 199 159 145 171 177 190 210 210 206 199 195 210 221 214 204 199 203 214 218 221 220 228 235 239 239 237 241 248 248 241
0 13 15 303 198 155 139 189 193 187 192 200 194 189 180 183 180 188 210 246 241 212 200 187 193 217 226 212 203 199 206 219 225 218 216 226 234 237 236 234 236 243 245
347 33 82 110 77 107 167 193 203 205 193 183 168 173 182 178 174 198 223 240 232 233 217 192 194 203 211 215 213 211 212 222 225 225 215 216 229 240 238 237 238 231 230
8 359 7 148 198 240 197 174 178 178 161 157 157 158 157 142 167 207 222 228 33 30 12 143 179 210 199 198 193 192 215 232 230 233 225 213 225 238 241 245 248 247 244
5 2 12 44 70 130 122 120 116 137 142 147 146 154 153 146 167 233 207 115 100 88 75 75 83 93 92 96 127 159 200 287 282 261 232 218 225 237 241 248 251 247 241